Theta_e
304 304 303 302 301 300 299 299 299 299 298 297 297 297 296 296 296 295 295 296 295 295 295 295 294 293 293 293 292 292 291 290 288 290 289 290 291 291 291 292 292 292 293
301 300 299 299 299 299 299 298 298 297 297 296 296 296 296 295 295 295 295 294 294 294 293 293 292 291 291 291 290 290 290 289 289 289 290 289 289 290 290 291 291 291 291
299 299 299 298 298 298 297 297 297 296 296 296 295 295 295 294 294 294 294 293 293 292 292 291 291 290 291 290 289 289 289 288 288 288 288 288 288 289 289 289 290 291 290
299 298 298 297 297 296 296 296 296 295 295 295 295 294 293 293 292 292 292 292 291 291 290 290 289 289 289 288 288 288 287 287 287 287 287 287 286 286 286 287 289 288 289
298 298 297 297 297 299 300 297 295 294 294 293 293 292 292 291 291 290 290 290 290 289 289 289 288 288 287 287 287 286 286 286 286 286 285 284 284 284 284 283 284 285 286
298 297 296 298 299 297 295 294 293 292 291 291 291 291 290 290 289 288 288 288 288 288 288 287 287 286 286 286 286 285 284 284 283 282 281 281 282 282 282 281 281 282 282
296 296 297 297 295 294 293 292 291 291 290 290 290 289 289 288 287 287 287 287 287 286 286 286 286 285 285 285 284 284 283 282 281 279 279 279 279 278 278 280 280 280 281
295 295 296 295 294 293 291 291 290 289 289 288 288 287 286 286 286 286 286 285 285 285 285 284 284 283 283 282 282 282 281 281 280 280 279 278 277 277 277 277 277 278 280
294 294 293 292 291 290 290 289 289 288 287 286 286 285 284 284 284 285 284 284 284 283 283 282 281 281 280 279 280 279 279 280 280 279 278 278 277 276 276 277 277 276 278
293 292 290 289 290 289 288 288 287 286 285 284 284 283 283 282 282 283 283 283 283 282 281 280 279 279 279 278 279 278 278 278 278 278 278 277 276 276 276 275 274 274 273
292 290 289 288 287 287 288 287 285 284 284 283 282 282 282 281 281 281 281 282 281 280 280 279 279 279 278 277 276 276 276 276 276 276 276 275 275 275 275 274 274 272 271
291 289 288 289 289 286 287 285 282 282 283 281 281 281 281 280 280 280 280 279 279 279 279 278 278 277 276 276 276 276 276 275 275 275 274 274 274 274 273 273 273 272 271
289 289 290 289 288 286 285 282 280 280 281 281 280 279 280 279 279 279 278 278 278 278 277 276 275 275 275 275 275 274 274 274 273 273 273 272 272 271 272 272 273 272 273
290 288 288 286 285 282 281 280 279 280 280 279 279 279 278 278 277 277 277 277 277 277 276 275 274 274 273 273 273 273 272 272 271 271 271 271 270 271 271 271 271 271 272
287 286 285 284 281 280 278 278 278 277 277 278 278 277 277 277 276 276 275 275 275 275 274 274 273 273 273 273 273 272 271 271 270 270 270 270 269 269 269 269 269 269 268
285 283 282 281 280 278 277 277 277 276 276 277 277 276 276 276 275 274 274 274 275 274 273 273 273 272 272 272 271 271 270 270 269 268 268 268 268 267 267 267 267 267 266
281 282 281 278 277 276 276 276 277 275 275 276 275 275 275 274 274 273 274 274 273 272 272 272 271 271 271 270 270 269 269 268 267 266 266 267 266 266 266 266 266 266 266
280 278 277 276 276 276 275 275 275 275 275 275 274 274 273 273 272 272 273 272 272 271 271 271 270 270 269 269 268 268 267 267 266 266 265 265 265 265 265 265 265 265 265
278 276 276 275 275 275 275 275 275 275 274 273 273 272 272 272 271 271 271 271 271 270 270 269 269 269 268 268 267 267 267 266 266 265 265 264 264 264 264 264 265 265 265
276 275 274 274 274 275 275 274 274 273 273 273 272 271 271 271 271 270 270 270 270 269 269 269 268 268 267 267 267 266 266 266 265 264 264 264 263 263 263 263 264 264 264
275 274 274 276 276 274 273 273 273 272 272 272 271 271 271 271 271 270 270 269 268 268 268 268 268 267 267 266 266 266 266 265 264 263 263 263 263 263 263 263 264 264 264
275 276 275 273 273 272 272 272 272 271 271 271 270 270 270 270 270 269 269 268 268 268 267 267 267 267 266 265 265 265 265 264 264 263 263 262 263 263 263 263 264 264 264
275 273 272 272 272 272 271 271 271 271 270 270 270 270 270 269 269 268 268 268 267 267 267 266 266 266 265 265 265 264 264 264 263 263 262 262 262 263 263 263 264 264 264
272 272 272 271 271 271 270 270 270 270 270 269 269 269 269 268 268 268 268 267 267 266 266 266 265 265 265 265 265 264 264 263 263 263 262 262 263 263 263 263 264 264 264
271 271 271 270 270 270 270 270 269 269 269 269 269 268 268 268 268 268 267 266 266 266 266 265 265 265 265 264 264 264 263 263 263 262 263 263 263 263 263 263 264 264 264
270 270 270 270 270 269 269 269 269 268 268 268 268 267 267 267 267 267 266 266 265 265 265 265 265 265 264 264 264 264 263 263 263 263 263 263 263 262 263 263 264 265 265
Wind_Speed
11 10 10 9 9 9 8 8 7 7 7 7 6 6 5 4 3 2 2 2 1 2 3 4 6 9 11 12 13 15 17 21 25 31 33 36 39 41 43 44 45 46 45
13 12 12 11 10 10 10 10 9 9 9 8 7 6 5 3 2 2 3 5 6 7 9 10 11 11 13 15 18 21 22 25 29 35 38 40 40 41 42 45 46 46 47
18 17 15 14 13 12 12 11 11 11 11 11 9 7 5 4 3 3 4 5 6 7 8 10 12 15 18 21 23 24 25 27 29 33 37 37 38 40 43 44 45 45 47
22 20 18 16 15 13 12 12 13 13 13 12 10 8 7 7 7 7 6 5 5 7 9 12 14 17 19 20 22 23 25 27 28 31 33 36 38 39 41 46 50 46 48
25 23 21 19 17 16 16 16 16 15 14 13 11 10 9 7 6 5 4 4 5 7 9 12 14 16 18 20 21 22 24 25 27 28 30 32 35 40 42 44 47 51 52
28 27 24 22 20 19 17 16 16 14 13 12 11 11 9 7 6 5 4 5 6 7 9 11 13 14 15 16 17 19 21 22 23 25 27 31 34 35 38 40 44 49 54
31 29 26 24 22 19 18 17 16 15 14 14 13 11 9 6 5 3 3 4 5 7 8 10 11 14 16 16 16 16 17 19 20 23 26 28 32 32 35 37 39 41 46
33 30 27 25 23 21 19 18 18 18 17 15 13 11 8 5 4 1 2 3 4 7 9 10 10 13 16 17 18 18 18 19 20 23 24 26 26 27 28 30 33 39 43
35 31 28 26 24 23 21 18 20 18 17 16 14 11 8 5 4 1 1 3 4 6 8 10 11 13 16 19 20 20 21 21 22 23 23 24 24 25 26 31 34 38 46
35 31 29 27 24 23 19 21 20 19 17 16 14 12 9 6 5 4 3 5 5 6 7 9 12 14 16 18 20 22 23 25 27 27 26 25 24 24 25 26 30 34 36
34 33 29 25 23 21 21 21 20 20 17 15 13 11 9 6 5 5 7 8 7 8 9 10 12 14 16 17 19 20 23 26 26 27 27 27 27 27 28 27 27 29 34
35 31 28 26 25 22 21 21 20 19 16 14 13 11 8 6 6 6 8 9 9 9 10 12 13 14 16 17 19 21 22 23 25 26 28 29 31 32 32 32 32 31 31
33 30 27 26 24 21 22 22 21 18 15 15 14 11 8 6 6 7 8 9 10 10 11 12 13 15 17 18 19 20 22 23 25 26 28 29 30 31 32 34 34 35 37
31 29 27 25 22 23 22 20 18 16 16 15 13 10 7 6 6 8 9 10 12 12 11 13 16 17 19 20 20 20 21 23 24 26 27 29 30 32 32 34 38 40 42
29 28 27 23 24 22 20 19 18 16 15 12 10 9 8 7 8 8 9 10 13 15 14 15 16 17 19 21 21 22 22 24 25 25 27 29 31 33 33 34 36 38 40
29 28 25 24 22 23 21 19 17 15 13 12 11 10 9 9 9 9 10 12 14 15 15 17 18 19 20 21 23 23 23 24 25 26 26 28 30 32 34 34 34 36 40
25 24 22 22 22 21 20 18 17 15 13 12 11 10 10 10 10 11 13 13 14 15 16 17 19 20 20 21 22 23 24 23 24 24 26 27 29 30 32 34 34 37 40
21 18 19 20 19 18 17 16 15 14 12 12 12 12 11 11 11 13 14 12 14 16 16 17 17 18 20 21 22 23 23 23 23 24 25 26 27 30 31 32 33 35 39
17 18 19 19 18 17 16 15 14 13 13 13 12 12 12 11 11 13 14 14 14 15 16 16 18 18 19 21 22 23 23 24 23 24 24 25 26 28 29 30 31 33 37
18 19 18 17 16 15 15 15 14 14 13 12 12 13 13 12 11 12 14 15 15 16 18 18 17 19 20 21 22 23 24 23 22 22 24 25 26 26 29 29 29 34 35
17 17 17 17 15 17 16 15 14 13 13 12 12 13 14 14 12 13 13 14 16 17 18 19 19 19 20 21 22 23 23 22 22 23 24 25 26 27 27 26 28 30 34
19 16 14 16 17 16 14 14 13 13 13 12 13 13 14 15 15 15 15 16 16 18 20 21 20 21 22 23 24 24 23 22 22 23 26 26 27 27 27 26 27 29 33
12 15 16 15 15 15 14 14 14 14 14 13 14 14 15 15 16 17 17 18 18 18 19 21 22 22 22 22 23 24 24 23 23 23 25 26 27 26 25 26 26 30 31
15 15 15 14 14 14 14 14 14 15 15 15 16 16 16 16 16 17 18 19 20 19 20 20 22 23 24 24 23 22 22 22 23 23 24 27 29 26 25 25 26 29 32
14 14 14 14 14 15 16 16 16 17 17 16 16 17 17 17 17 18 19 20 21 22 21 21 22 23 24 24 24 23 22 21 23 24 26 29 29 28 26 25 27 31 30
14 14 15 16 16 16 17 17 17 17 17 17 17 17 18 18 19 19 20 21 22 23 23 23 23 23 24 24 23 23 22 22 24 25 27 29 31 32 29 28 30 33 36
Wind_Direction
221 212 205 198 194 193 195 202 209 217 223 229 239 242 237 228 222 198 146 116 94 72 48 32 32 36 27 17 12 8 357 346 338 337 342 344 344 342 339 337 334 332 329
222 214 210 208 207 210 216 222 223 225 228 232 233 235 240 229 188 139 93 75 70 60 51 34 28 18 12 9 4 1 356 351 344 341 341 342 342 339 335 331 330 328 327
221 219 218 217 218 219 222 226 230 234 231 227 226 224 217 190 152 120 96 81 69 51 33 21 15 7 4 2 359 355 351 346 344 339 337 338 336 335 332 330 328 325 324
224 222 222 222 222 223 226 230 233 230 228 232 230 219 192 164 148 131 120 97 64 36 20 10 5 1 358 354 351 348 345 342 340 337 336 337 339 339 336 333 326 328 326
227 226 224 223 222 229 235 236 234 233 234 230 218 202 183 164 150 128 106 74 43 28 15 2 358 353 350 347 346 343 339 338 336 335 337 337 340 339 340 338 334 331 329
227 226 224 226 232 232 232 233 232 226 219 215 210 202 185 167 137 102 76 43 23 9 4 357 346 342 339 339 338 337 338 338 338 340 343 342 341 338 335 336 335 333 330
227 225 226 228 228 229 231 228 226 221 214 211 206 203 199 183 143 104 54 15 1 354 349 345 336 333 330 331 333 336 336 340 342 343 342 344 339 339 333 330 331 325 321
227 226 227 227 229 227 225 225 225 219 213 211 209 206 203 198 173 134 19 355 347 336 334 332 329 327 329 331 335 334 336 337 338 338 338 338 336 333 332 328 327 319 316
227 226 226 226 225 222 221 220 223 217 212 209 208 207 209 217 227 207 339 336 333 331 331 328 330 335 339 339 337 335 333 329 330 334 336 333 331 332 336 330 332 331 326
225 225 224 221 222 221 216 222 217 214 212 212 210 207 210 224 251 286 316 334 333 323 323 331 337 335 334 335 334 331 331 332 333 331 330 331 334 335 337 338 336 332 332
226 226 224 222 217 217 217 218 216 213 212 216 214 213 214 225 262 300 315 318 326 331 326 324 327 326 327 330 333 333 332 329 327 327 329 332 335 338 339 340 339 334 329
226 224 224 225 223 216 218 218 213 212 211 217 220 219 217 236 260 290 306 317 321 323 321 322 323 325 329 330 329 326 325 324 325 329 332 336 339 339 340 338 337 334 331
222 224 225 221 215 212 215 215 210 209 210 214 218 220 227 243 266 286 297 309 315 323 325 325 328 328 328 327 326 326 327 329 332 333 337 339 339 338 337 334 333 331 331
220 219 215 212 207 209 208 209 214 218 215 215 219 228 233 244 265 285 297 309 309 315 325 325 325 328 326 325 327 330 333 335 336 337 338 336 335 337 338 338 336 336 333
216 213 209 204 203 205 206 208 211 211 213 219 223 232 238 247 260 277 298 310 313 316 327 322 318 319 321 324 326 331 334 335 335 336 336 336 337 338 340 341 340 340 342
210 206 201 200 205 207 206 204 206 212 218 222 227 233 244 255 267 282 287 299 310 311 316 317 321 322 323 325 326 329 333 333 334 335 337 337 337 338 337 339 341 343 342
206 202 200 204 206 205 204 206 210 210 219 232 240 248 253 261 267 274 284 301 304 309 311 316 318 320 322 325 327 328 330 332 332 333 335 336 335 334 335 337 340 342 341
200 196 204 206 207 209 210 210 214 220 228 237 242 246 251 258 268 276 292 302 301 306 308 311 315 318 321 323 324 324 326 327 329 329 331 333 333 332 333 334 337 338 339
193 200 206 207 207 209 215 218 224 227 230 235 242 249 254 263 271 280 289 294 297 301 304 310 314 318 320 320 321 321 323 324 326 325 327 329 333 331 331 330 330 334 335
199 204 205 209 212 219 226 226 226 229 232 236 242 249 258 262 268 275 283 291 299 304 306 312 316 317 317 318 317 317 319 321 320 320 323 326 329 328 329 327 329 331 336
205 207 210 219 225 226 227 229 231 234 238 243 249 258 266 272 275 280 287 294 297 301 304 309 313 314 313 313 313 315 317 319 318 318 320 323 325 323 326 323 324 330 335
211 217 220 224 226 228 231 235 239 243 246 248 254 263 272 284 288 290 291 293 295 302 306 309 312 314 314 316 318 317 317 318 318 317 318 320 322 320 319 319 321 325 330
218 224 226 229 232 236 240 244 248 251 255 259 261 264 271 277 283 288 291 294 298 301 302 306 308 310 311 312 313 313 314 317 317 318 320 322 322 318 314 317 322 326 329
227 231 235 239 243 247 250 254 259 262 264 265 268 270 273 277 281 286 292 294 295 297 301 304 306 308 310 310 310 309 306 308 310 313 314 317 319 318 312 314 321 324 328
237 241 246 249 252 254 256 259 260 262 265 269 272 275 279 282 286 290 292 293 297 300 304 304 304 305 306 308 309 305 301 302 305 305 303 304 309 315 312 312 317 319 323
246 249 253 256 260 260 260 262 265 267 269 269 273 278 282 286 291 293 294 296 297 299 301 301 301 303 306 308 308 303 299 298 302 304 302 305 311 313 310 305 308 311 314